(240) Vanadis
ephemeris date magn radius delta ra dec elong phase
Today17 Sep 202514.42.827 AU3.831 AU11h40m+03°35'1.3°0.5°
Opposition22 Apr 202613.43.149 AU2.145 AU14h03m-09°17'176.9°1.0°
(240) Vanadis - 2025-09-17
astro.vanbuitenen.nl


 
-1 year
-1 month
-1 day
Now
+1 day
+1 month
+1 year

The interactive orbit chart above shows the body's path through the solar system and its position at the given date. Green and blue lines are shown perpendicular to the ecliptic plane: Green if the path is above the ecliptic plane, blue if it is below. (Left-click and drag to rotate the view; Right-click and drag to move the view; Use scroll wheel to zoom in our out.)

The orbital elements of Vanadis are:

            e (Eccentricity)                : 0.2089976
            a (Semimajor axis)              : 2.6627793
            i (Inclination)                 : 2.10625
            Ω (Longitude of ascending node) : 115.04806
            ω (Argument of perihelion)      : 300.72482
            M (Mean anomaly)                : 65.06574
            Epoch                           : 2025 May 05

            L (Longitude of perihelion)     : 55.78989
            B (Latitude of perihelion)      : -1.81049
            P (Orbital period in years)     : 4.35            
        

The light curve chart below shows the estimated development of the minor planet's magnitude.


The all-sky chart below shows the path of the minor planet over the same period as the light curve. The current position is marked yellow.





The following chart shows the path of the minor planet in the next few days. The field of view is optimized for (~10x50) binoculars and finderscopes. A more printer-friendly version of the same chart can be found below.




Ephemerides:
Date       Time       RA (2000)    DEC (2000)    delta   radius  elong  phase   PA    magn
2025-09-17 00:00 UT   11 40 16.9   +03 35 05     3.831    2.827    1.3    0.5    25   14.4 
2025-09-17 18:00 UT   11 41 23.5   +03 28 04     3.833    2.828    1.4    0.5     7   14.4 
2025-09-18 00:00 UT   11 41 45.7   +03 25 43     3.833    2.829    1.4    0.5     2   14.4 
2025-09-19 00:00 UT   11 43 14.4   +03 16 22     3.835    2.831    1.7    0.6   344   14.4 
2025-09-20 00:00 UT   11 44 43.0   +03 07 00     3.836    2.833    2.2    0.8   332   14.5 
2025-09-21 00:00 UT   11 46 11.5   +02 57 39     3.837    2.835    2.6    0.9   324   14.5 
2025-09-22 00:00 UT   11 47 39.9   +02 48 18     3.838    2.837    3.1    1.1   319   14.5 
2025-09-23 00:00 UT   11 49 08.2   +02 38 58     3.839    2.839    3.7    1.3   315   14.5 
2025-09-24 00:00 UT   11 50 36.4   +02 29 39     3.840    2.840    4.2    1.5   312   14.5 
2025-09-25 00:00 UT   11 52 04.4   +02 20 20     3.841    2.842    4.8    1.7   310   14.6 
2025-09-26 00:00 UT   11 53 32.4   +02 11 02     3.841    2.844    5.3    1.9   308   14.6 
2025-09-27 00:00 UT   11 55 00.2   +02 01 44     3.842    2.846    5.9    2.1   307   14.6 
2025-09-28 00:00 UT   11 56 28.0   +01 52 27     3.842    2.848    6.5    2.3   306   14.6 
2025-09-29 00:00 UT   11 57 55.6   +01 43 11     3.842    2.850    7.1    2.5   305   14.6 
2025-09-30 00:00 UT   11 59 23.1   +01 33 56     3.842    2.852    7.6    2.7   304   14.6 
2025-10-01 00:00 UT   12 00 50.4   +01 24 42     3.841    2.854    8.2    2.9   303   14.6 
2025-10-02 00:00 UT   12 02 17.7   +01 15 28     3.841    2.856    8.8    3.1   302   14.7 
2025-10-03 00:00 UT   12 03 44.8   +01 06 16     3.841    2.858    9.4    3.3   302   14.7 
2025-10-04 00:00 UT   12 05 11.8   +00 57 04     3.840    2.860   10.0    3.5   301   14.7 
2025-10-05 00:00 UT   12 06 38.7   +00 47 54     3.839    2.862   10.5    3.7   301   14.7 
2025-10-06 00:00 UT   12 08 05.4   +00 38 45     3.838    2.864   11.1    3.9   301   14.7 
2025-10-07 00:00 UT   12 09 32.0   +00 29 37     3.837    2.866   11.7    4.1   300   14.7 
2025-10-08 00:00 UT   12 10 58.5   +00 20 30     3.836    2.868   12.3    4.3   300   14.7 


    Terminology:
            
    delta:  distance between minor planet and earth in AU
    radius: distance between minor planet and sun in AU
    magn:   magnitude (brightness) estimate    
    ra:     right ascension in hours (24h = 360deg)
    dec:    declination in degrees
    elong:  elongation in degrees (angle sun-earth-minor planet)    
    phase:  phase angle in degrees (angle sun-minor planet-earth)        
    AU:     Astronomical Unit (mean distance between earth and sun: 149597870.7 km
    

Orbital elements provided by the MPC (Minor Planet Center).
Calculations by a modified version of AAPlus, a C# implementation of the AA+ project by PJ Naughter from the algorithms presented in the book "Astronomical Algorithms" by Jean Meeus.
NGC2000 dso catalog and star labels from VizieR as provided by the Strasbourg astronomical Data Center.
Tycho2 catalog from the ESO archive.